Regional Weather Roundup
Issued by NWS

Home | Current Version | Previous Version | Text Only | Print | Product List | Glossary On
Versions: 1 2 3 4 5 6 7 8 9 10 11 12 13 14 15 16 17 18 19 20 21 22 23 24 25 26 27 28 29 30 31 32 33 34 35 36 37 38 39 40 41 42 43 44 45 46 47 48 49 50
000
ASUS45 KTFX 260019
RWRMT
MONTANA HOURLY WEATHER ROUNDUP
NATIONAL WEATHER SERVICE GREAT FALLS MT
519 PM MST SUN JAN 25 2015

NOTE: "FAIR" INDICATES FEW OR NO CLOUDS BELOW 12000 FEET WITH NO
SIGNIFICANT WEATHER AND/OR OBSTRUCTIONS TO VISIBILITY.

* THESE STATIONS ARE NOT UNDER NWS QUALITY CONTROL. THEY DO NOT
   REPORT WEATHER SUCH AS PRECIPITATION OR FOG.

MTZ001>007-043-260100-
WEST OF THE DIVIDE
CITY           SKY/WX    TMP DP  RH WIND       PRES   REMARKS
KALISPELL      PTCLDY    41  36  82 W3        30.16R
MISSOULA       PTCLDY    46  34  63 W5        30.20S
BUTTE          PTCLDY    48  27  44 W8        30.26R
MULLAN PASS    PTCLDY    43  28  56 VRB5      30.25R
* ANACONDA     MOCLDY    52  27  38 S11        N/A
* ESSEX        N/A       38  34  86 S2G8       N/A
* EUREKA APT   CLOUDY    52  32  47 SE8       30.14R
* HAMILTON APT PTCLDY    57  25  29 SW10      30.22R
* LIBBY APT    MOCLDY    45  37  74 CALM      30.17R
* LINCOLN      N/A       54  28  37 S7G14      N/A
* LOOKOUT PASS N/A       43  33  68 NW2G7      N/A
* POLSON       N/A       48  33  56 SE3        N/A
* RONAN APT    PTCLDY    45  45 100 N/A        N/A
* SEELEY LAKE  N/A       51  30  45 N2G8       N/A
* THOMP F APT  PTCLDY    32  27  82 SW1        N/A
$$

MTZ008-052>055-260100-
SOUTHWEST MONTANA
CITY           SKY/WX    TMP DP  RH WIND       PRES   REMARKS
BOZEMAN        CLOUDY    39  34  82 CALM      30.22R
DILLON         PTCLDY    52  27  38 SW15      30.28R
* W YELLOWSTON CLOUDY    32  29  89 SW3G11     N/A
* THREE FORKS  MOCLDY    52  34  50 N/A        N/A
* BOULDER HILL N/A       49  27  43 S4         N/A
* MONIDA PASS  N/A       27  27 100 SE17       N/A   WCI  14
* RAYNOLDS PAS N/A       29  14  53 SE27G34    N/A   WCI  14
* WHITEHALL    N/A       61  25  25 SW14G25    N/A
* WISE RIVER   N/A       49  25  39 W11G21     N/A
$$

MTZ009>010-012-014-046-048-049-054-260100-
EAST SLOPES AND CENTRAL MONTANA
CITY           SKY/WX    TMP DP  RH WIND       PRES   REMARKS
CUT BANK       CLOUDY    52  30  43 W28G35    29.98R
GREAT FALLS    CLOUDY    54  30  40 SW18      30.04R
HELENA         MOCLDY    57  32  39 NW3       30.16S
MALMSTROM AFB  CLOUDY    54  32  43 SW14G22   30.05R
* CONRAD       CLOUDY    54  36  51 S18G24     N/A
* DEARBORN     N/A       62  28  28 S24G34     N/A
* EAST GLACIER N/A       51  27  39 NW19G29    N/A
* MONARCH      N/A       50  24  36 SW19G26    N/A
* PENDROY      N/A       56  32  40 NW4        N/A
* ROGERS PASS  N/A       49  27  43 SE14G29    N/A
* SWEET GRASS  N/A       51  32  48 W21G27     N/A
* WHITE SULPH  N/A       46  28  50 S2G9       N/A
$$

MTZ011-013-016-021-035-040-045-047-050-051-260100-
NORTH CENTRAL MONTANA
CITY           SKY/WX    TMP DP  RH WIND       PRES   REMARKS
HAVRE          MOCLDY    48  36  63 SW23      29.91S
LEWISTOWN      MOCLDY    45  30  56 SW12      30.01R
* N BAR RANCH  CLEAR     55  28  35 NW28G39   29.97R
* CHINOOK      MOCLDY    50  36  59 W7        29.90R
* CHESTER      N/A       45  33  63 SW7G13     N/A
* DENTON       N/A       50  30  46 W29G34     N/A
* GEYSER       N/A       55  27  34 SW28G37    N/A
* JUDITH GAP   N/A       53  26  35 SW16G26    N/A
* LOMA         N/A       58  34  41 SW17G22    N/A
$$

MTZ017>020-022>027-061-062-260100-
NORTHEAST MONTANA
CITY           SKY/WX    TMP DP  RH WIND       PRES   REMARKS
GLASGOW        PTCLDY    45  36  71 CALM      29.85R
GLENDIVE       PTCLDY    43  36  76 SW9       29.88F
JORDAN         PTCLDY    46  36  68 CALM      29.89R
SIDNEY         PTCLDY    37  30  76 S7        29.85F WCI  32
WOLF POINT     PTCLDY    43  34  71 W5        29.85S
* BEAVER HILL  N/A       42  34  73 SW12       N/A
* CIRCLE       N/A       47  39  74 N/A        N/A
* LINDSAY DVD  N/A       47  38  71 W17        N/A
* NAVAJO       N/A       39  33  79 W16        N/A   WCI  30
* PLENTYWOOD A PTCLDY    39  34  82 CALM      29.79S
* POPLAR APT   PTCLDY    43  34  71 N/A       29.83F
* SACO         N/A       48  38  68 W11        N/A
$$

MTZ028>042-056>058-260100-
SOUTHCENTRAL AND SOUTHEAST MONTANA
CITY           SKY/WX    TMP DP  RH WIND       PRES   REMARKS
BAKER          PTCLDY    41  34  76 W10       29.91R
BILLINGS       MOCLDY    59  28  31 W21G30    30.03R
LIVINGSTON     CLOUDY    55  27  34 W28G40    30.14R
MILES CITY     PTCLDY    46  36  68 NW8       29.92R
* BIG TIMBER A CLOUDY    55  27  34 W36G45    30.06F
* FORSYTH APT  PTCLDY    55  37  51 W3        29.94R
* LAUREL APT   MOCLDY    59  27  29 SW16G24    N/A
* ROUNDUP APT  MOCLDY    57  28  33 SW17G25    N/A
* ALZADA       N/A       45  35  68 SW9        N/A
* HYSHAM       N/A       54  30  40 W5G11      N/A
* LAME DEER    N/A       49  32  52 W15G20     N/A
* REED POINT   N/A       60  31  33 W24G33     N/A
* ROSCOE HILL  N/A       59  16  18 NW8G27     N/A
$$

REGIONAL REPORTS...DAKOTAS
CITY           SKY/WX    TMP DP  RH WIND       PRES   REMARKS
WILLISTON      PTCLDY    39  30  70 SW7       29.82S WCI  34
DICKINSON      MOCLDY    41  30  65 SW15      29.83F
BEACH          CLEAR     39  36  89 SW10      29.88R WCI  32
CROSBY         CLEAR     36  36 100 SW18      29.75F WCI  26
TIOGA          CLEAR     36  36 100 SW16      29.80S WCI  26
WATFORD CITY   CLEAR     37  32  82 SW12      29.80F WCI  29
BISMARCK       CLOUDY    36  32  85 S3        29.89F
GRAND FORKS    CLOUDY    27  19  72 S8        29.95F WCI  19
FARGO          CLOUDY    27  18  69 S6        29.99F WCI  20
BUFFALO SD     PTCLDY    45  34  65 W13       29.84S
RAPID CITY     MOCLDY    43  23  45 SE5       29.95S
$$

REGIONAL REPORTS...WYOMING/IDAHO/WASHINGTON
CITY           SKY/WX    TMP DP  RH WIND       PRES   REMARKS
GILLETTE       CLEAR     43  32  65 W10       30.02S
SHERIDAN       CLEAR     46  30  54 N9        30.03R
CODY           MOCLDY    55  25  31 W12G26    30.14R
YELLOWSTONE LA CLOUDY    30  27  89 CALM      30.44R
SALMON         CLOUDY    32  25  75 SE3       30.37S
MULLAN PASS    PTCLDY    43  28  56 VRB5      30.25S
SAND POINT     MOCLDY    45  45 100 CALM      30.21S
SPOKANE        MOCLDY    48  43  83 NE6       30.18F
$$

REGIONAL REPORTS...ALBERTA
CITY           SKY/WX    TMP DP  RH WIND       PRES   REMARKS
CALGARY        PTCLDY    54  30  40 NW6       29.84R
LETHBRIDGE     MOCLDY    57  28  33 W25G32    29.89R
MEDICINE HAT   MOCLDY    46  37  71 SE8       29.84R
EDMONTON       MOCLDY    46  25  44 NW10      29.80R
WATERTON GATE  N/A       55  27  34 SW15G31    N/A
CARDSTON       N/A       55  30  39 NW7        N/A
MILK RIVER     N/A       54  34  47 SW16G23    N/A
$$

REGIONAL REPORTS...SASKATCHEWAN
CITY           SKY/WX    TMP DP  RH WIND       PRES   REMARKS
SWIFT CURRENT  PTCLDY    41  36  82 W12       29.80R
MOOSE JAW      FAIR      43  36  76 W17       29.75R
REGINA         FAIR      36  32  85 W13       29.71S WCI  27
VAL MARIE      N/A       41  36  82 N3         N/A
ASSINIBOIA     N/A       41  34  76 W14        N/A
CORONACH       N/A       37  32  82 SW9        N/A   WCI  30

$$



USA.gov is the U.S. government's official web portal to all federal, state and local government web resources and services.